This is the latest recevied weather packets stored in our database for station/object PY2UTU-WX. If no packets are shown the sender has not sent any weather packets the latest 10 day(s).
| Time | Temp. | Humidity | Pressure | Rain* | Wind** | Luminosity | Snow |
|---|---|---|---|---|---|---|---|
| 1777487241 | 22.22° C | 98% | 922 hPa | - | - | - | - |
| 1777486341 | 21.67° C | 98% | 922.1 hPa | - | - | - | - |
| 1777485441 | 22.22° C | 98% | 921.8 hPa | - | - | - | - |
| 1777484541 | 25.56° C | 98% | 921.7 hPa | - | - | - | - |
| 1777483641 | 27.22° C | 98% | 921.5 hPa | - | - | - | - |
| 1777482741 | 30° C | 95% | 921.3 hPa | - | - | - | - |
| 1777481841 | 30° C | 96% | 921.4 hPa | - | - | - | - |
| 1777480941 | 28.89° C | 96% | 921.6 hPa | - | - | - | - |
| 1777480041 | 30° C | 95% | 921.8 hPa | - | - | - | - |
| 1777479141 | 30.56° C | 94% | 921.9 hPa | - | - | - | - |
| 1777478241 | 30.56° C | 94% | 922 hPa | - | - | - | - |
| 1777477341 | 30.56° C | 95% | 922.2 hPa | - | - | - | - |
| 1777476441 | 31.11° C | 98% | 922.4 hPa | - | - | - | - |
| 1777475541 | 30.56° C | 98% | 922.3 hPa | - | - | - | - |
| 1777474641 | 29.44° C | 97% | 922.4 hPa | - | - | - | - |
| 1777473741 | 28.89° C | 98% | 922.5 hPa | - | - | - | - |
| 1777472841 | 28.33° C | 98% | 922.8 hPa | - | - | - | - |
| 1777471941 | 27.78° C | 98% | 923 hPa | - | - | - | - |
| 1777471041 | 27.22° C | 98% | 923.1 hPa | - | - | - | - |
| 1777470141 | 28.33° C | 98% | 923.4 hPa | - | - | - | - |
| 1777469241 | 27.78° C | 98% | 923.5 hPa | - | - | - | - |
| 1777468341 | 27.78° C | 98% | 923.7 hPa | - | - | - | - |
| 1777467441 | 27.78° C | 98% | 923.9 hPa | - | - | - | - |
| 1777466541 | 28.33° C | 98% | 923.8 hPa | - | - | - | - |
| 1777465641 | 27.22° C | 98% | 923.8 hPa | - | - | - | - |
* Rain since midnight (hover to see other rain measurements)
** Current wind speed in m/s (hover to see current wind gust speed)